DELTA 1 DEB, 42652

Orbit data source: Space-Track

DELTA 1 DEB, 42652 is space debris in SSO originally from a launch on Thu, 12 Jun 1975 UTC launched from the Air Force Western Test Range (AFWTR). Debris objects in space refer to the collection of defunct objects orbiting the Earth. Examples of debris include non-operational satellites, rocket bodies, and fragments generated from explosions, collisions, or faulty payload assembly.

Loading next visibility...
Identifier
42652, 1975-052MM
Orbit
SSO
Country
Flag of USUS
Related business
Manufacturer
Unknown
Mission
Spacecraft
Bus & Motor
Unknown
Mass
Unknown
Launch date (UTC)
1975-06-12 (50 years ago)
Launch vehicle
Unknown
Launch site
Air Force Western Test Range (AFWTR)
Object type
Payload
Rocket body
Debris
Shape & HBR
Unknown shape, 0.1 m
Radar Cross Section
Small (<0.1 m²)

Expand to show TLE details & history
Last TLE update: 2 days ago

TLE from 2 days ago
0 DELTA 1 DEB
1 42652U 75052MM  25289.69762787  .00000291  00000-0  67103-3 0  9998
2 42652  99.7498  83.1197 0073088 197.0031 175.4693 13.33033199578812
Epoch: 2025-10-16T16:44Z
TLE epoch observation values (Epoch: 2025-10-16T16:44:35.047Z)
Latitude
12.31567°
Longitude
164.38104°
Altitude
1,192.107 km
Speed
7.232 km/s
True Right ascension
05h 23m 55s
True Declination
12° 14' 54"
Sunlit
Object was in daylight at epoch
Visualization orbit readout
Latitude
Unknown
Longitude
Unknown
Altitude
Unknown
Speed
Unknown
Apparent Right ascension
Unknown
Apparent Declination
Unknown
Sunlit
N/A
Visualization observer readout
Local Sidereal Time
06:35:22
Azimuth
Unknown
Elevation
Unknown
Doppler factor
Unknown
Orbital elements
Apogee altitude
1,187.566 km
Perigee altitude
1,077.776 km
Semi-major axis
7,510.808 km
Eccentricity
0.00731
Inclination
99.7498°
RAAN
83.1197°
Arg. of periapsis
197.0031°
True anomaly
175.53486°
Mean anomaly
175.4693°
Eccentric anomaly
175.50214°
Mean motion
3.33437 °/min
Orbital period
107.97 mins
BSTAR
0.00067103
Loading maneuver chart data...
Computing Atmospheric mass density...
Loading historical data...
Loading historical data...
Loading historical data...
Loading historical data...
Loading historical data...
Loading historical data...
Loading historical data...

Documentation

Showing up to 5 results
|